Regional Weather Roundup
Issued by NWS Grand Forks, ND

Home | Current Version | Previous Version | Text Only | Print | Product List | Glossary On
Versions: 1 2 3 4 5 6 7 8 9 10 11 12 13 14 15 16 17 18 19 20 21 22 23 24 25 26 27 28 29 30 31 32 33 34 35 36 37 38 39 40 41 42 43 44 45 46 47 48 49 50
000
ASUS43 KFGF 230331
RWRFGF
PRAIRIE TO PINES  WEATHER ROUNDUP
NATIONAL WEATHER SERVICE EASTERN NORTH DAKOTA/GRAND FORKS ND
1000 PM CDT MON MAY 22 2017

 **SATELLITE DATA USED TO AUGMENT SKY COVER AT AUTOMATED STATIONS**
 *****  WEATHER ACROSS EASTERN NORTH DAKOTA  *****

CITY           SKY/WX    TMP DP  RH WIND       PRES   REMARKS
GRAND FORKS    CLOUDY    50  47  89 N13       29.91R
GRAND FRKS AFB CLOUDY    49  46  90 N14       29.93R
DEVILS LAKE    CLOUDY    49  42  77 N17G28    30.00R
FARGO          CLOUDY    49  46  90 NW12      29.89R
WAHPETON ARPT  CLOUDY    46  43  87 NW7       29.90S
$$

 ***** WEATHER ACROSS CENTRAL AND WESTERN NORTH DAKOTA  *****

CITY           SKY/WX    TMP DP  RH WIND       PRES   REMARKS
BISMARCK       CLOUDY    58  37  45 N22G30    30.01R
MINOT          CLOUDY    55  37  50 N15       30.07R
JAMESTOWN      CLOUDY    49  44  83 N14       29.96R
MINOT AFB      CLOUDY    55  38  51 NE9       30.07R
GARRISON         N/A     54  35  48 NE13      30.05R
WILLISTON      CLOUDY    61  35  37 N7        30.10R
DICKINSON      CLOUDY    55  34  45 NW8       30.06R
HETTINGER      CLOUDY    51  37  58 NW5       30.09R
$$

 *****  OTHER AIRPORT OBSERVATIONS IN OUR AREA  *****

CITY           SKY/WX    TMP DP  RH WIND       PRES   REMARKS
WALHALLA       NOT AVBL
GRAFTON AIRPOR CLOUDY    48  48 100 N13G18    29.96R
VALLEY CITY AR NOT AVBL
CANDO          NOT AVBL
CAVALIER APRT  MOCLDY    50  45  81 N12       29.96R
GWINNER        CLOUDY    48  45  87 MISG      29.93R
SHEYENNE NWR     N/A     49  45  85 N7        29.95S
ROLLA          MOCLDY    48  45  87 N16       30.05R
 ***** THE ABOVE OBSERVATIONS ARE NON NWS ARE NOT QUALITY
       CONTROLLED AND MAY MIS-REPORT RAIN FOR SNOW...
$$

  *****  WEATHER ACROSS NORTHERN MINNESOTA  *****

CITY           SKY/WX    TMP DP  RH WIND       PRES   REMARKS
FLAG ISLAND    CLOUDY    48  45  87 N18       29.88S
WARROAD        DRIZZLE   46  43  87 N13       29.90R
ROSEAU         CLOUDY    48  43  81 N12       29.90R
HALLOCK        CLOUDY    48  46  93 N9        29.94R
THF RVR FALLS  LGT RAIN  48  44  86 N10       29.90R
BAUDETTE       CLOUDY    47  45  93 N6        29.86R
WASKISH        CLOUDY    46  45  93 NW5       29.85S
CROOKSTON      CLOUDY    48  46  93 N9        29.91R
STEPHEN NDAWN    N/A     48  46  93 N8          N/A
GREENBUSH NDAW   N/A     48  45  87 N10         N/A
$$
  *****  WEATHER ACROSS CENTRAL AND WEST MINNESOTA  *****

CITY           SKY/WX    TMP DP  RH WIND       PRES   REMARKS
FOSSTON        CLOUDY    45  43  93 N7        29.88S
BEMIDJI        DRIZZLE   45  44  97 CALM      29.86R
PARK RAPIDS    CLOUDY    45  41  86 NW5       29.85S
ELBOW LAKE     RAIN      47  44  90 W10       29.89R
WADENA         LGT RAIN  45  43  93 N3        29.86S
DETROIT LAKES  CLOUDY    45  43  93 NW6       29.89R
MOORHEAD       CLOUDY    48  45  87 N13       29.90S
FERGUS FALLS   CLOUDY    46  45  93 N6        29.88R
MORRIS MN      FAIR      48  43  81 NW14      29.88R
STAPLES        CLOUDY    46  41  81 NW7       29.86R
$$
  *****  WEATHER ELSEWHERE ACROSS MINNESOTA  *****

CITY           SKY/WX    TMP DP  RH WIND       PRES   REMARKS
DULUTH         CLOUDY    49  43  80 N3        29.82S
INTRNTL FALLS  LGT RAIN  47  45  93 NW5       29.83R FOG
ELY            CLOUDY    45  43  93 CALM      29.83R
CLOQUET        CLOUDY    48  41  76 NW3       29.83S
WHEATON        DRIZZLE   48  43  81 NW6       29.92R
BRAINERD       CLOUDY    49  42  77 N5        29.84S
HIBBING        CLOUDY    44  43  96 CALM      29.83R
ALEXANDRIA     CLOUDY    49  42  77 N6        29.87R
SAINT CLOUD    FAIR      46  42  86 NW7       29.84S
MINNEAPOLIS    CLOUDY    59  41  51 N12G24    29.83R
$$

  *****  WEATHER ACROSS SOUTH DAKOTA  *****

CITY           SKY/WX    TMP DP  RH WIND       PRES   REMARKS
SIOUX FALLS    CLOUDY    51  46  83 W3        29.93R
BROOKINGS      CLOUDY    49  47  93 NW5       29.92R
WATERTOWN      CLOUDY    50  39  66 N16       29.92R
HURON          CLOUDY    52  44  74 N9        29.96R
SISSETON         N/A     50  45  83 NW14      29.90S
ABERDEEN       LGT RAIN  49  43  80 NW7       29.96S
MITCHELL       CLOUDY    53  45  74 W8        29.96R
PIERRE         CLOUDY    53  38  56 N9        30.01R
MOBRIDGE       MOCLDY    52  41  66 CALM      29.98S
RAPID CITY     FAIR      47  41  80 NW9       30.12R
$$

  *****  SOME WEATHER IN NEARBY STATES *****

CITY           SKY/WX    TMP DP  RH WIND       PRES   REMARKS
GLASGOW MT     FAIR      55  33  43 NE9       30.16R
GREAT FALLS MT FAIR      61  41  47 CALM      30.19S
CHEYENNE WY    MOCLDY    42  33  70 N16G25    30.22R
SCOTTSBLUFF NE FAIR      43  37  79 NW6       30.17R
OMAHA NE       MOCLDY    60  52  74 SE3       29.88S
DES MOINES IA  CLOUDY    59  51  75 SW6       29.85F
DAVENPORT IA   FAIR      59  55  87 SW10      29.89R
CHICAGO IL     CLOUDY    61  53  75 SW15G22   29.91S
EAU CLAIRE WI  FAIR      52  45  77 NE3       29.82R
LA CROSSE WI   MOCLDY    61  53  75 NW3       29.80R
$$

  *****  SOME NATIONAL WEATHER *****

CITY           SKY/WX    TMP DP  RH WIND       PRES   REMARKS
LA GUARDIA NY  CLOUDY    61  59  93 NW7       29.95F
RALEIGH NC     CLOUDY    73  68  84 SE13      29.97F THUNDER
ATLANTA GA     LGT RAIN  69  68  96 NW7       29.96S
NEW ORLEANS LA HVY RAIN  73  71  93 S7        29.90S FOG
OKLAHOMA CITY  LGT RAIN  60  58  92 N8        29.98R
ALBUQUERQUE NM FAIR      71  19  14 N15       30.06R
SALT LAKE CITY MOCLDY    71  40  32 CALM      30.14S
LOS ANGELES CA CLOUDY    60  57  89 W10       29.93R
BOISE ID       FAIR      76  35  22 NW10      30.09R
SEATTLE WA     FAIR      77  52  41 N7        30.04F
$$

*** WEATHER ACROSS MANITOBA...SASKATCHEWAN AND ONTARIO ***
                ***ONTARIO***

CITY           SKY/WX    TMP DP  RH WIND       PRES   REMARKS
GERALDTON      DRIZZLE   46  46 100 N7        29.78R FOG
THUNDER BAY    MOCLDY    52  48  87 SW3       29.79R
SIOUX LOOKOUT  DRIZZLE   46  45  93 NE7G18    29.87R
TORONTO        CLEAR     55  46  71 SW7       29.95F
BIG TROUT LK   CLEAR     52  36  54 NE8G17    30.05R
PICKLE LAKE    NOT AVBL
DRYDEN         CLOUDY    46  45  93 NE14G25   29.86R
KENORA         LGT RAIN  46  45  93 N7        29.90R
$$
                *** MANITOBA***

CITY           SKY/WX    TMP DP  RH WIND       PRES   REMARKS
BRANDON        MOCLDY    54  36  50 N7        30.06R
DAUPHIN        CLEAR     55  34  44 N9        30.09R
ISLAND LAKE    PTCLDY    57  34  41 NE7       30.09R
PILOT MOUND      N/A     50  39  66 N13         N/A
THE PAS        PTCLDY    57  30  35 NE8       30.11R
THOMPSON       PTCLDY    54  34  47 E6        30.15S
WINNIPEG       MOCLDY    50  43  76 NE15      30.00R
LYNN LAKE      CLEAR     57  28  33 SE6       30.11F
CHURCHILL      FOG       30  30 100 SE10      30.24F VSB 1/8 WCI  21
GILLAM         PTCLDY    41  34  75 NE7       30.21R
$$
                ***SASKATCHEWAN***

CITY           SKY/WX    TMP DP  RH WIND       PRES   REMARKS
ESTEVAN        PTCLDY    54  37  54 E3        30.10R
KINDERSLEY     PTCLDY    64  28  25 W2        30.14S
LLOYDMINSTER   CLOUDY    64  39  39 S8        30.08F
PRINCE ALBERT  MOCLDY    64  34  32 SE3       30.11R
REGINA         PTCLDY    59  28  31 N8        30.14R
YORKTON        CLEAR     54  30  40 E7        30.12R
N. BATTLEFORD  CLEAR     63  37  39 SE3       30.13F
LA RONGE       MOCLDY    61  30  31 VRB2      30.09F
SASKATOON      MOCLDY    59  36  41 VRB2      30.14S
SWIFT CURRENT  CLEAR     57  32  38 E6        30.17S
$$
NOTE: THESE ARE AUTOMATED STATIONS WITH LIMITED QUALITY CONTROL
      "FAIR" INDICATES FEW OR NO CLOUDS BELOW 12,000 FEET WITH NO
      SIGNIFICANT WEATHER AND/OR OBSTRUCTIONS TO VISIBILITY.
      SKY/WX - SKY CONDITION AND SIGNIFICANT WEATHER.
      TMP - AIR TEMPERATURE.    DP   - DEWPOINT TEMPERATURE.
      RH  - RELATIVE HUMIDITY.  PRES - PRESSURE.
      HX  - HEAT INDEX.         WCI  - WIND CHILL INDEX.
$




USA.gov is the U.S. government's official web portal to all federal, state and local government web resources and services.